Time,TemperatureF,DewpointF,PressureIn,WindDirection,WindDirectionDegrees,WindSpeedMPH,WindSpeedGustMPH,Humidity,HourlyPrecipIn,Conditions,Clouds,dailyrainin,SoftwareType,DateUTC
2013-06-07 00:02:00,61.0,46.0,-100.00,ESE,106,5.0,9.0,58,-99.99,,,-99.99,,2013-06-07 07:02:00,
2013-06-07 01:02:00,60.0,45.0,-100.00,SSW,196,2.0,4.0,58,-99.99,,,-99.99,,2013-06-07 08:02:00,
2013-06-07 01:12:00,60.0,45.0,-100.00,SSW,196,2.0,4.0,58,-99.99,,,-99.99,,2013-06-07 08:12:00,
2013-06-07 01:22:00,61.0,45.0,-100.00,ENE,78,0.0,4.0,55,-99.99,,,-99.99,,2013-06-07 08:22:00,
2013-06-07 01:32:00,60.0,44.0,-100.00,North,-999,0.0,0.0,56,-99.99,,,-99.99,,2013-06-07 08:32:00,
2013-06-07 01:42:00,60.0,44.0,-100.00,North,-999,0.0,0.0,56,-99.99,,,-99.99,,2013-06-07 08:42:00,
2013-06-07 01:52:00,60.0,44.0,-100.00,West,275,2.0,4.0,56,-99.99,,,-99.99,,2013-06-07 08:52:00,
2013-06-07 02:02:00,60.0,44.0,-100.00,West,275,2.0,4.0,56,-99.99,,,-99.99,,2013-06-07 09:02:00,
2013-06-07 02:12:00,59.0,46.0,-100.00,West,278,0.0,3.0,62,-99.99,,,-99.99,,2013-06-07 09:12:00,
2013-06-07 02:22:00,59.0,46.0,-100.00,West,278,0.0,3.0,62,-99.99,,,-99.99,,2013-06-07 09:22:00,
2013-06-07 02:53:00,54.0,43.0,-100.00,ESE,103,5.0,6.0,65,-99.99,,,-99.99,,2013-06-07 09:53:00,
2013-06-07 03:02:00,54.0,43.0,-100.00,ESE,103,5.0,6.0,65,-99.99,,,-99.99,,2013-06-07 10:02:00,
2013-06-07 03:11:00,55.0,41.0,-100.00,East,90,5.0,7.0,60,-99.99,,,-99.99,,2013-06-07 10:11:00,
2013-06-07 03:12:00,53.0,44.0,-100.00,ESE,123,5.0,8.0,71,-99.99,,,-99.99,,2013-06-07 10:12:00,
2013-06-07 03:32:00,55.0,41.0,-100.00,East,90,5.0,7.0,60,-99.99,,,-99.99,,2013-06-07 10:32:00,
2013-06-07 03:42:00,55.0,41.0,-100.00,East,90,5.0,7.0,60,-99.99,,,-99.99,,2013-06-07 10:42:00,
2013-06-07 03:52:00,55.0,41.0,-100.00,East,90,5.0,7.0,60,-99.99,,,-99.99,,2013-06-07 10:52:00,
2013-06-07 04:02:00,55.0,41.0,-100.00,East,90,5.0,7.0,60,-99.99,,,-99.99,,2013-06-07 11:02:00,
2013-06-07 04:22:00,52.0,43.0,-100.00,North,-999,0.0,0.0,71,-99.99,,,-99.99,,2013-06-07 11:22:00,
2013-06-07 04:32:00,51.0,43.0,-100.00,North,-999,0.0,0.0,74,-99.99,,,-99.99,,2013-06-07 11:32:00,
2013-06-07 04:42:00,51.0,43.0,-100.00,North,-999,0.0,0.0,74,-99.99,,,-99.99,,2013-06-07 11:42:00,
2013-06-07 04:52:00,51.0,43.0,-100.00,North,-999,0.0,0.0,75,-99.99,,,-99.99,,2013-06-07 11:52:00,
2013-06-07 05:02:00,51.0,43.0,-100.00,North,-999,0.0,0.0,75,-99.99,,,-99.99,,2013-06-07 12:02:00,
2013-06-07 05:12:00,52.0,44.0,-100.00,SW,219,0.0,3.0,74,-99.99,,,-99.99,,2013-06-07 12:12:00,
2013-06-07 05:22:00,52.0,44.0,-100.00,SW,219,0.0,3.0,74,-99.99,,,-99.99,,2013-06-07 12:22:00,
2013-06-07 05:32:00,50.0,42.0,-100.00,ESE,104,3.0,5.0,75,-99.99,,,-99.99,,2013-06-07 12:32:00,
2013-06-07 05:52:00,52.0,39.0,-100.00,ENE,78,3.0,5.0,62,-99.99,,,-99.99,,2013-06-07 12:52:00,
2013-06-07 06:02:00,52.0,39.0,-100.00,ENE,78,3.0,5.0,62,-99.99,,,-99.99,,2013-06-07 13:02:00,
2013-06-07 06:12:00,52.0,39.0,-100.00,ENE,78,3.0,5.0,62,-99.99,,,-99.99,,2013-06-07 13:12:00,
2013-06-07 06:43:00,50.0,42.0,-100.00,WSW,258,1.0,3.0,73,-99.99,,,-99.99,,2013-06-07 13:43:00,
2013-06-07 06:52:00,50.0,44.0,-100.00,WSW,246,1.0,3.0,80,-99.99,,,-99.99,,2013-06-07 13:52:00,
2013-06-07 07:02:00,50.0,44.0,-100.00,WSW,246,1.0,3.0,80,-99.99,,,-99.99,,2013-06-07 14:02:00,
2013-06-07 07:12:00,54.0,45.0,-100.00,North,-999,0.0,0.0,71,-99.99,,,-99.99,,2013-06-07 14:12:00,
2013-06-07 07:22:00,54.0,45.0,-100.00,North,-999,0.0,0.0,71,-99.99,,,-99.99,,2013-06-07 14:22:00,
2013-06-07 07:32:00,54.0,45.0,-100.00,North,-999,0.0,0.0,71,-99.99,,,-99.99,,2013-06-07 14:32:00,
2013-06-07 07:42:00,54.0,45.0,-100.00,North,-999,0.0,0.0,71,-99.99,,,-99.99,,2013-06-07 14:42:00,
2013-06-07 08:12:00,62.0,42.0,-100.00,ESE,116,2.0,5.0,48,-99.99,,,-99.99,,2013-06-07 15:12:00,
2013-06-07 08:22:00,62.0,42.0,-100.00,ESE,116,2.0,5.0,48,-99.99,,,-99.99,,2013-06-07 15:22:00,
2013-06-07 08:33:00,63.0,46.0,-100.00,South,179,0.0,2.0,54,-99.99,,,-99.99,,2013-06-07 15:33:00,
2013-06-07 08:43:00,63.0,46.0,-100.00,South,179,0.0,2.0,54,-99.99,,,-99.99,,2013-06-07 15:43:00,
2013-06-07 08:53:00,68.0,45.0,-100.00,South,186,0.0,2.0,43,-99.99,,,-99.99,,2013-06-07 15:53:00,
2013-06-07 09:03:00,68.0,45.0,-100.00,South,186,0.0,2.0,43,-99.99,,,-99.99,,2013-06-07 16:03:00,
2013-06-07 09:12:00,68.0,45.0,-100.00,South,186,0.0,2.0,43,-99.99,,,-99.99,,2013-06-07 16:12:00,
2013-06-07 09:22:00,70.0,45.0,-100.00,South,188,0.0,2.0,40,-99.99,,,-99.99,,2013-06-07 16:22:00,
2013-06-07 09:32:00,70.0,45.0,-100.00,South,188,0.0,2.0,40,-99.99,,,-99.99,,2013-06-07 16:32:00,
2013-06-07 09:43:00,70.0,45.0,-100.00,South,188,0.0,2.0,40,-99.99,,,-99.99,,2013-06-07 16:43:00,
2013-06-07 09:52:00,72.0,44.0,-100.00,SW,215,1.0,3.0,37,-99.99,,,-99.99,,2013-06-07 16:52:00,
2013-06-07 10:02:00,72.0,44.0,-100.00,SW,215,1.0,3.0,37,-99.99,,,-99.99,,2013-06-07 17:02:00,
2013-06-07 10:12:00,72.0,44.0,-100.00,SW,215,1.0,3.0,37,-99.99,,,-99.99,,2013-06-07 17:12:00,
2013-06-07 10:22:00,74.0,47.0,-100.00,SW,236,1.0,3.0,38,-99.99,,,-99.99,,2013-06-07 17:22:00,
2013-06-07 10:32:00,74.0,47.0,-100.00,SW,236,1.0,3.0,38,-99.99,,,-99.99,,2013-06-07 17:32:00,
2013-06-07 10:42:00,77.0,49.0,-100.00,SW,217,1.0,3.0,38,-99.99,,,-99.99,,2013-06-07 17:42:00,
2013-06-07 10:52:00,78.0,48.0,-100.00,SSW,202,1.0,3.0,35,-99.99,,,-99.99,,2013-06-07 17:52:00,
2013-06-07 10:55:00,81.0,45.0,-100.00,South,191,1.0,4.0,28,-99.99,,,-99.99,,2013-06-07 17:55:00,
2013-06-07 11:23:00,80.0,43.0,-100.00,SW,215,1.0,3.0,27,-99.99,,,-99.99,,2013-06-07 18:23:00,
2013-06-07 11:34:00,81.0,45.0,-100.00,South,191,1.0,4.0,28,-99.99,,,-99.99,,2013-06-07 18:34:00,
2013-06-07 11:43:00,81.0,45.0,-100.00,South,191,1.0,4.0,28,-99.99,,,-99.99,,2013-06-07 18:43:00,
2013-06-07 12:34:00,86.0,44.0,-100.00,SW,224,2.0,4.0,23,-99.99,,,-99.99,,2013-06-07 19:34:00,
2013-06-07 12:54:00,88.0,35.0,-100.00,WSW,250,1.0,3.0,15,-99.99,,,-99.99,,2013-06-07 19:54:00,
2013-06-07 13:03:00,88.0,35.0,-100.00,WSW,250,1.0,3.0,15,-99.99,,,-99.99,,2013-06-07 20:03:00,
2013-06-07 13:13:00,89.0,34.0,-100.00,SSW,202,1.0,4.0,14,-99.99,,,-99.99,,2013-06-07 20:13:00,
2013-06-07 13:23:00,90.0,39.0,-100.00,South,179,1.0,4.0,17,-99.99,,,-99.99,,2013-06-07 20:23:00,
2013-06-07 13:35:00,90.0,31.0,-100.00,South,179,1.0,3.0,12,-99.99,,,-99.99,,2013-06-07 20:35:00,
2013-06-07 13:44:00,90.0,31.0,-100.00,South,179,1.0,3.0,12,-99.99,,,-99.99,,2013-06-07 20:44:00,
2013-06-07 14:04:00,90.0,33.0,-100.00,WSW,253,1.0,4.0,13,-99.99,,,-99.99,,2013-06-07 21:04:00,
2013-06-07 14:25:00,91.0,33.0,-100.00,NW,305,2.0,4.0,13,-99.99,,,-99.99,,2013-06-07 21:25:00,
2013-06-07 14:44:00,91.0,29.0,-100.00,NW,315,3.0,9.0,11,-99.99,,,-99.99,,2013-06-07 21:44:00,
2013-06-07 14:55:00,93.0,40.0,-100.00,WSW,253,2.0,8.0,16,-99.99,,,-99.99,,2013-06-07 21:55:00,
2013-06-07 15:07:00,93.0,40.0,-100.00,WSW,253,2.0,8.0,16,-99.99,,,-99.99,,2013-06-07 22:07:00,
2013-06-07 15:24:00,90.0,33.0,-100.00,WSW,251,10.0,17.0,13,-99.99,,,-99.99,,2013-06-07 22:24:00,
2013-06-07 15:33:00,91.0,40.0,-100.00,WSW,244,10.0,17.0,17,-99.99,,,-99.99,,2013-06-07 22:33:00,
2013-06-07 15:44:00,91.0,40.0,-100.00,WSW,244,10.0,17.0,17,-99.99,,,-99.99,,2013-06-07 22:44:00,
2013-06-07 15:58:00,90.0,36.0,-100.00,WSW,248,9.0,16.0,15,-99.99,,,-99.99,,2013-06-07 22:58:00,
2013-06-07 16:16:00,91.0,35.0,-100.00,WSW,253,10.0,15.0,14,-99.99,,,-99.99,,2013-06-07 23:16:00,
2013-06-07 16:24:00,90.0,36.0,-100.00,WNW,284,7.0,11.0,15,-99.99,,,-99.99,,2013-06-07 23:24:00,
2013-06-07 16:34:00,90.0,28.0,-100.00,West,268,8.0,15.0,11,-99.99,,,-99.99,,2013-06-07 23:34:00,
2013-06-07 17:06:00,90.0,38.0,-100.00,West,278,10.0,15.0,16,-99.99,,,-99.99,,2013-06-08 00:06:00,
2013-06-07 17:14:00,90.0,38.0,-100.00,West,278,10.0,15.0,16,-99.99,,,-99.99,,2013-06-08 00:14:00,
2013-06-07 17:34:00,90.0,46.0,-100.00,West,268,6.0,10.0,22,-99.99,,,-99.99,,2013-06-08 00:34:00,
2013-06-07 17:44:00,90.0,46.0,-100.00,West,268,6.0,10.0,22,-99.99,,,-99.99,,2013-06-08 00:44:00,
2013-06-07 18:03:00,89.0,34.0,-100.00,West,268,8.0,14.0,14,-99.99,,,-99.99,,2013-06-08 01:03:00,
2013-06-07 18:15:00,88.0,46.0,-100.00,West,264,8.0,14.0,23,-99.99,,,-99.99,,2013-06-08 01:15:00,
2013-06-07 18:36:00,88.0,44.0,-100.00,WSW,243,8.0,12.0,22,-99.99,,,-99.99,,2013-06-08 01:36:00,
2013-06-07 18:44:00,88.0,44.0,-100.00,WSW,243,8.0,12.0,22,-99.99,,,-99.99,,2013-06-08 01:44:00,
2013-06-07 18:54:00,88.0,44.0,-100.00,WSW,243,8.0,12.0,22,-99.99,,,-99.99,,2013-06-08 01:54:00,
2013-06-07 19:37:00,85.0,29.0,-100.00,SW,234,12.0,22.0,13,-99.99,,,-99.99,,2013-06-08 02:37:00,
2013-06-07 19:45:00,81.0,35.0,-100.00,SW,233,9.0,19.0,19,-99.99,,,-99.99,,2013-06-08 02:45:00,
2013-06-07 19:49:00,85.0,29.0,-100.00,SW,234,12.0,22.0,13,-99.99,,,-99.99,,2013-06-08 02:49:00,
2013-06-07 19:58:00,82.0,37.0,-100.00,SW,236,12.0,19.0,20,-99.99,,,-99.99,,2013-06-08 02:58:00,
2013-06-07 20:07:00,82.0,37.0,-100.00,SW,236,12.0,19.0,20,-99.99,,,-99.99,,2013-06-08 03:07:00,
2013-06-07 20:25:00,81.0,35.0,-100.00,SW,233,9.0,19.0,19,-99.99,,,-99.99,,2013-06-08 03:25:00,
2013-06-07 20:34:00,81.0,35.0,-100.00,SW,233,9.0,19.0,19,-99.99,,,-99.99,,2013-06-08 03:34:00,
2013-06-07 21:00:00,81.0,32.0,-100.00,SW,233,11.0,20.0,17,-99.99,,,-99.99,,2013-06-08 04:00:00,
2013-06-07 21:03:00,81.0,32.0,-100.00,SW,233,11.0,20.0,17,-99.99,,,-99.99,,2013-06-08 04:03:00,
2013-06-07 21:12:00,80.0,34.0,-100.00,SW,234,11.0,17.0,19,-99.99,,,-99.99,,2013-06-08 04:12:00,
2013-06-07 21:23:00,80.0,34.0,-100.00,SW,234,11.0,17.0,19,-99.99,,,-99.99,,2013-06-08 04:23:00,
2013-06-07 21:33:00,79.0,33.0,-100.00,WSW,239,8.0,17.0,19,-99.99,,,-99.99,,2013-06-08 04:33:00,
2013-06-07 21:42:00,79.0,33.0,-100.00,WSW,239,8.0,17.0,19,-99.99,,,-99.99,,2013-06-08 04:42:00,
2013-06-07 21:53:00,79.0,33.0,-100.00,WSW,239,8.0,17.0,19,-99.99,,,-99.99,,2013-06-08 04:53:00,
2013-06-07 22:02:00,78.0,32.0,-100.00,WNW,298,4.0,11.0,19,-99.99,,,-99.99,,2013-06-08 05:02:00,
2013-06-07 22:12:00,78.0,32.0,-100.00,WNW,298,4.0,11.0,19,-99.99,,,-99.99,,2013-06-08 05:12:00,
2013-06-07 22:22:00,81.0,27.0,-100.00,NW,325,2.0,9.0,14,-99.99,,,-99.99,,2013-06-08 05:22:00,
2013-06-07 22:32:00,81.0,27.0,-100.00,NW,325,2.0,9.0,14,-99.99,,,-99.99,,2013-06-08 05:32:00,
2013-06-07 22:42:00,82.0,28.0,-100.00,South,181,3.0,8.0,14,-99.99,,,-99.99,,2013-06-08 05:42:00,
2013-06-07 22:52:00,70.0,37.0,-100.00,East,89,8.0,14.0,30,-99.99,,,-99.99,,2013-06-08 05:52:00,
2013-06-07 23:02:00,70.0,37.0,-100.00,East,89,8.0,14.0,30,-99.99,,,-99.99,,2013-06-08 06:02:00,
2013-06-07 23:12:00,70.0,35.0,-100.00,East,82,10.0,15.0,28,-99.99,,,-99.99,,2013-06-08 06:12:00,
2013-06-07 23:22:00,70.0,35.0,-100.00,East,82,10.0,15.0,28,-99.99,,,-99.99,,2013-06-08 06:22:00,
2013-06-07 23:32:00,71.0,31.0,-100.00,East,83,8.0,14.0,23,-99.99,,,-99.99,,2013-06-08 06:32:00,
2013-06-07 23:42:00,71.0,31.0,-100.00,East,83,8.0,14.0,23,-99.99,,,-99.99,,2013-06-08 06:42:00,
2013-06-07 23:52:00,66.0,34.0,-100.00,SE,127,5.0,7.0,30,-99.99,,,-99.99,,2013-06-08 06:52:00,